OPS 4682 DEB, 20031

Orbit data source: Space-Track

OPS 4682 DEB, 20031 is space debris in LEO originally from a launch on Sat, 03 Apr 1965 UTC launched from the Air Force Western Test Range (AFWTR). Debris objects in space refer to the collection of defunct objects orbiting the Earth. Examples of debris include non-operational satellites, rocket bodies, and fragments generated from explosions, collisions, or faulty payload assembly.

Loading next visibility...
Identifier
20031, 1965-027BB
Orbit
LEO
Country
Flag of USUS
Related business
Manufacturer
Unknown
Mission
Spacecraft
Bus & Motor
Unknown
Mass
Unknown
Launch date (UTC)
1965-04-03 (61 years ago)
Launch vehicle
Unknown
Launch site
Air Force Western Test Range (AFWTR)
Object type
Payload
Rocket body
Debris
Shape & HBR
Unknown shape, 0.1 m
Radar Cross Section
Small (<0.1 m²)

Expand to show TLE details & history
Last TLE update: 5 hours ago

TLE from 5 hours ago
0 OPS 4682 DEB
1 20031U 65027BB  26104.16321264  .00000013  00000-0  17792-4 0  9998
2 20031  90.2338 357.9446 0030489 223.3997 290.6682 12.97919622758900
Epoch: 2026-04-14T03:55Z
TLE epoch observation values (Epoch: 2026-04-14T03:55:01.572Z)
Latitude
26.29009°
Longitude
-83.04044°
Altitude
1,265.273 km
Speed
7.229 km/s
True Right ascension
11h 52m 14s
True Declination
26° 09' 46"
Sunlit
Object was in full shadow at epoch
Visualization orbit readout
Latitude
Unknown
Longitude
Unknown
Altitude
Unknown
Speed
Unknown
Apparent Right ascension
Unknown
Apparent Declination
Unknown
Sunlit
N/A
Visualization observer readout
Local Sidereal Time
15:48:00
Azimuth
Unknown
Elevation
Unknown
Doppler factor
Unknown
Orbital elements
Apogee altitude
1,290.689 km
Perigee altitude
1,244.068 km
Semi-major axis
7,645.516 km
Eccentricity
0.00305
Inclination
90.2338°
RAAN
357.9446°
Arg. of periapsis
223.3997°
True anomaly
290.34087°
Mean anomaly
290.6682°
Eccentric anomaly
290.50458°
Mean motion
3.24663 °/min
Orbital period
110.88 mins
BSTAR
0.000017792
Loading maneuver chart data...
Computing Atmospheric mass density...
Loading historical data...
Loading historical data...
Loading historical data...
Loading historical data...
Loading historical data...
Loading historical data...
Loading historical data...

Documentation

Showing up to 5 results
|